Location: Brede
(50.9167°N, 0.6000°E)
Time: 18:39:06
(UTC+00:00)

Cosmos 2237 Rocket - Pass Details

Date: 08 August 2020
Orbit: 836 x 848 km, 71.0° (Epoch: 23 September)

Event Time Altitude Azimuth Distance (km) Brightness Sun altitude
Rises 00:32:51 0° 330° (NNW) 3,414 6.2 -22.7°
Reaches altitude 10° 00:35:20 10° 333° (NNW) 2,473 5.4 -22.7°
Maximum altitude 00:41:00 70° 58° (ENE) 898 2.4 -22.5°
Enters shadow 00:43:49 30° 134° (SE) 1,458 3.1 -22.4°
